Content
SEND FEEDBACK

Daily
Averages
Monthly
Summary
Canada

MONTREAL, QUEBEC


Home > North America > Canada > Quebec
Elevation: 118 feet     Latitude: 45 28N     Longitude: 073 45W

WEATHER
 
SELECT A DAY
Number of Records: 198,773;   Date Range: 1/1/95 - 9/17/14
 
SHARE

PRINT THIS DATA

[ ← Previous Day ]
WEATHER ALMANAC - FEBRUARY 10, 2013
[ Next Day → ]
[ °C ]   °F
Weather ElementAverageHighLow
Temperature11.7 °F21.2 °F (3:00 pm)1.4 °F (2:00 am)
Dewpoint-0.4 °F5 °F (2:00 pm)-5 °F (7:00 am)
Humidity58 %78 % (2:00 am)34 % (7:00 pm)
Barometer30.41 in30.50 in (10:00 am)30.25 in (11:00 pm)
Wind Speed5.5 mph8.1 mph (7:00 pm)
Weather ElementAverage
Visibility21 mi
Wind DirectionSSE (163.7 °)

Weather ElementTotal
Precipitation---
Heating Degree Days53.7 (Base 65)
Averaged from 27 records on February 10, 2013
WEATHER CONDITIONS BREAKOUT
WIND DIRECTION BREAKOUT
WEATHER BY HOUR - FEBRUARY 10, 2013
[ °C ]   °F
Local TimeTemperatureDewpointHumidityBarometerVisibilityWind DirectionWind SpeedGust SpeedPrecipitationEventsConditions
1:00 AM5.0 °F-3.0 °F57 %30.42 in15.0 miSW (220°)4.6 mph
1:00 AM5.0 °F-2.2 °F72 %30.42 in15.0 miSW (220°)4.6 mphClear
2:00 AM1.4 °F-4.0 °F78 %30.42 in15.0 miSW (220°)2.3 mphClear
3:00 AM1.4 °F-4.0 °F78 %30.43 in15.0 miSW (220°)4.6 mphClear
4:00 AM3.2 °F-4.0 °F72 %30.43 in15.0 miSSW (210°)2.3 mphClear
5:00 AM1.4 °F-4.0 °F78 %30.44 in15.0 miSSW (200°)5.8 mphClear
6:00 AM1.4 °F-4.0 °F78 %30.44 in15.0 miSW (220°)5.8 mphClear
7:00 AM2.0 °F-5.0 °F61 %30.47 in28.0 miSW (230°)6.9 mphScattered Clouds
7:00 AM1.4 °F-4.0 °F78 %30.47 in30.0 miSW (230°)4.6 mphPartly Cloudy
8:00 AM3.2 °F-4.0 °F72 %30.48 in30.0 miSSW (200°)2.3 mphPartly Cloudy
9:00 AM6.8 °F-2.2 °F67 %30.49 in30.0 miSSW (210°)3.5 mphPartly Cloudy
10:00 AM8.6 °F-0.4 °F67 %30.50 in30.0 miSSW (210°)5.8 mphMostly Cloudy
11:00 AM12.2 °F1.4 °F62 %30.50 in30.0 miSSW (200°)6.9 mphMostly Cloudy
12:00 PM14.0 °F1.4 °F57 %30.48 in30.0 miSSW (210°)6.9 mphMostly Cloudy
1:00 PM17.0 °F4.0 °F41 %30.44 in28.0 miSSE (160°)3.5 mphScattered Clouds
1:00 PM17.6 °F3.2 °F53 %30.44 in30.0 miSSE (160°)3.5 mphMostly Cloudy
2:00 PM19.4 °F5.0 °F54 %30.41 in30.0 miSSE (160°)6.9 mphScattered Clouds
3:00 PM21.2 °F1.4 °F42 %30.40 in30.0 miSSW (210°)5.8 mphMostly Cloudy
4:00 PM21.2 °F3.2 °F46 %30.40 in15.0 miSouth (190°)6.9 mphMostly Cloudy
5:00 PM19.4 °F3.2 °F49 %30.37 in15.0 miESE (110°)5.8 mphMostly Cloudy
6:00 PM19.4 °F3.2 °F49 %30.37 in15.0 miENE (70°)5.8 mphScattered Clouds
7:00 PM19.0 °F3.0 °F34 %30.35 in15.0 miENE (60°)6.9 mphClear
7:00 PM19.4 °F3.2 °F49 %30.35 in15.0 miENE (60°)8.1 mphPartly Cloudy
8:00 PM17.6 °F-0.4 °F45 %30.32 in15.0 miEast (80°)8.1 mphPartly Cloudy
9:00 PM19.4 °F-2.2 °F39 %30.29 in15.0 miENE (70°)8.1 mphClear
10:00 PM19.4 °F-0.4 °F42 %30.27 in15.0 miENE (60°)5.8 mphClear
11:00 PM19.4 °F1.4 °F46 %30.25 in15.0 miNNE (30°)6.9 mphClear
Hourly data recorded from CYUL, located miles away from Montreal, Quebec







STORIES FROM OUR PARTNERS